Alturas, CA

8:56 PM PDT on May 22, 2017 (GMT -0700)
Alturas Municipal

Weather History for KAAT - March, 2014

Change the Weather History Date:

Saturday, March 15, 2014

  Actual Average Record
Temperature  
Mean Temperature 44 °F 38 °F  
Max Temperature 68 °F 52 °F 78 °F (1994)
Min Temperature 19 °F 25 °F -14 °F (1917)
Degree Days  
Heating Degree Days 21 27  
Month to date heating degree days 340 412  
Since 1 July heating degree days 5105 5279  
Cooling Degree Days 0 0  
Month to date cooling degree days 0 0  
Year to date cooling degree days 0 0  
Moisture  
Dew Point 21 °F    
Average Humidity 53    
Maximum Humidity 92    
Minimum Humidity 14    
Precipitation  
Precipitation 0.00 in 0.05 in 0.41 in (1948)
Month to date precipitation 1.25 0.71  
Year to date precipitation 2.85 3.81  
Sea Level Pressure  
Sea Level Pressure 30.40 in    
Wind  
Wind Speed 2 mph (South)    
Max Wind Speed 10 mph    
Max Gust Speed 17 mph    
Visibility 9 miles    
Events      
T = Trace of Precipitation, MM = Missing Value Source: NWS Daily Summary

Daily Weather History Graph

Daily Weather History Graph

Search for Another Location

Airport or City:

Trip Planner

Search our weather history database for the weather conditions in past years. The results will help you decide how hot, cold, wet, or windy it might be!

Date:

Astronomy

Mar. 15, 2014 Rise Set
Actual Time 7:13 AM PDT 7:09 PM PDT
Civil Twilight 6:46 AM PDT 7:36 PM PDT
Nautical Twilight 6:14 AM PDT 8:08 PM PDT
Astronomical Twilight 5:41 AM PDT 8:41 PM PDT
Moon 6:33 PM PDT (3/15) 6:28 AM PDT (3/15)
Length of Visible Light 12h 50m
Length of Day
11h 55m
Waxing Gibbous, 99% of the Moon is Illuminated
Mar 15
Waxing Gibbous
Mar 16
Full
Mar 23
Last Quarter
Mar 30
New
Apr 7
First Quarter

Hourly Weather History & Observations

Time (PDT) Temp. Windchill Dew Point Humidity Pressure Visibility Wind Dir Wind Speed Gust Speed Precip Events Conditions
12:55 AM 28.9 °F - 21.0 °F 72% 30.40 in 7.0 mi Calm Calm - N/A   Clear
1:55 AM 27.0 °F - 21.0 °F 78% 30.40 in 10.0 mi Calm Calm - N/A   Clear
2:55 AM 26.1 °F - 21.0 °F 81% 30.42 in 8.0 mi Calm Calm - N/A   Clear
3:55 AM 26.1 °F 19.4 °F 21.0 °F 81% 30.41 in 10.0 mi ENE 5.8 mph - N/A   Clear
4:55 AM 21.9 °F - 19.0 °F 89% 30.42 in 10.0 mi Calm Calm - N/A   Clear
5:55 AM 21.9 °F - 19.0 °F 89% 30.42 in 8.0 mi Calm Calm - N/A   Clear
6:55 AM 21.0 °F - 18.0 °F 88% 30.45 in 5.0 mi Calm Calm - N/A   Clear
7:55 AM 21.9 °F - 19.0 °F 89% 30.47 in 10.0 mi Calm Calm - N/A   Clear
8:55 AM 34.0 °F - 25.0 °F 70% 30.45 in 10.0 mi Calm Calm - N/A   Clear
9:55 AM 42.1 °F - 26.1 °F 53% 30.44 in 10.0 mi Calm Calm - N/A   Clear
10:55 AM 48.9 °F - 21.9 °F 35% 30.43 in 10.0 mi Calm Calm - N/A   Clear
11:55 AM 55.9 °F - 19.9 °F 25% 30.42 in 10.0 mi South 5.8 mph - N/A   Clear
12:55 PM 61.0 °F - 10.9 °F 14% 30.41 in 10.0 mi Variable 3.5 mph - N/A   Clear
1:55 PM 64.0 °F - 16.0 °F 16% 30.37 in 10.0 mi SSE 10.4 mph - N/A   Clear
2:55 PM 66.0 °F - 19.0 °F 17% 30.36 in 10.0 mi North - - N/A   Clear
3:55 PM 66.0 °F - 19.0 °F 17% 30.35 in 10.0 mi Variable 4.6 mph - N/A   Clear
4:55 PM 66.9 °F - 19.9 °F 17% 30.34 in 10.0 mi ESE 4.6 mph - N/A   Clear
5:55 PM 66.0 °F - 19.9 °F 17% 30.33 in 10.0 mi Calm Calm - N/A   Clear
6:55 PM 62.1 °F - 23.0 °F 22% 30.35 in 10.0 mi WSW 4.6 mph - N/A   Clear
7:55 PM 52.0 °F - 25.0 °F 35% 30.38 in 10.0 mi West 3.5 mph - N/A   Clear
8:55 PM 48.0 °F - 28.0 °F 46% 30.38 in 10.0 mi North - - N/A   Clear
9:55 PM 43.0 °F 41.3 °F 28.0 °F 56% 30.39 in 8.0 mi North 3.5 mph - N/A   Clear
10:55 PM 41.0 °F - 27.0 °F 57% 30.40 in 10.0 mi Calm Calm - N/A   Clear
11:55 PM 34.0 °F - 26.1 °F 73% 30.40 in 6.0 mi Calm Calm - N/A   Haze